Location: Akdamlar
(36.8729°N, 30.5187°E)
Time: 20:06:00
(UTC+00:00)

Cosmos 1943 - Pass Details

Date: 18 September 2020
Orbit: 833 x 850 km, 71.0° (Epoch: 24 October)

Event Time Altitude Azimuth Distance (km) Brightness Sun altitude
Rises 16:22:26 0° 347° (NNW) 3,397 6.6 -5.2°
Reaches altitude 10° 16:25:07 10° 356° (N) 2,462 5.8 -5.7°
Maximum altitude 16:30:14 34° 61° (ENE) 1,355 3.9 -6.8°
Drops below altitude 10° 16:35:20 10° 126° (SE) 2,461 5.1 -7.8°
Enters shadow 16:36:54 - 132° (SE) 3,003 5.6 -8.1°
